Satellite: PROITERES
Catalog number: 38756
Epoch time:      12271.82554833
Element set:      70
Inclination:      098.2838 deg
RA of node:       337.6969 deg
Eccentricity:    0.0011773
Arg of perigee:   217.9743 deg
Mean anomaly:     142.0625 deg
Mean motion:   14.73883638 rev/day
Decay rate:       5.75e-06 rev/day^2
Epoch rev:             274
Checksum:              330

Satellite: OBJECT D
Catalog number: 38761
Epoch time:      12268.59018760
Element set:    0018
Inclination:      064.6727 deg
RA of node:       007.9061 deg
Eccentricity:    0.0219362
Arg of perigee:   286.4122 deg
Mean anomaly:     205.1345 deg
Mean motion:   14.79120532 rev/day
Decay rate:      2.110e-05 rev/day^2
Epoch rev:           00156
Checksum:              270

Satellite: OBJECT E
Catalog number: 38762
Epoch time:      12264.52772095
Element set:    0014
Inclination:      064.6719 deg
RA of node:       020.3496 deg
Eccentricity:    0.0219119
Arg of perigee:   287.3135 deg
Mean anomaly:     173.9581 deg
Mean motion:   14.79110077 rev/day
Decay rate:      1.246e-05 rev/day^2
Epoch rev:           00096
Checksum:              299

Satellite: OBJECT F
Catalog number: 38763
Epoch time:      12268.58833758
Element set:    0016
Inclination:      064.6732 deg
RA of node:       007.9137 deg
Eccentricity:    0.0219633
Arg of perigee:   286.4343 deg
Mean anomaly:     195.0416 deg
Mean motion:   14.79113104 rev/day
Decay rate:      1.955e-05 rev/day^2
Epoch rev:           00140
Checksum:              299

Satellite: OBJECT G
Catalog number: 38764
Epoch time:      12268.59053544
Element set:    0019
Inclination:      064.6735 deg
RA of node:       007.9112 deg
Eccentricity:    0.0219414
Arg of perigee:   286.3324 deg
Mean anomaly:     204.3843 deg
Mean motion:   14.79048217 rev/day
Decay rate:      1.915e-05 rev/day^2
Epoch rev:           00156
Checksum:              295

Satellite: OBJECT H
Catalog number: 38765
Epoch time:      12268.79450975
Element set:    0017
Inclination:      064.6726 deg
RA of node:       007.2677 deg
Eccentricity:    0.0219363
Arg of perigee:   286.2238 deg
Mean anomaly:     218.6495 deg
Mean motion:   14.79262528 rev/day
Decay rate:      2.431e-05 rev/day^2
Epoch rev:           00159
Checksum:              331

Satellite: OBJECT J
Catalog number: 38766
Epoch time:      12268.58823291
Element set:    0017
Inclination:      064.6734 deg
RA of node:       007.9103 deg
Eccentricity:    0.0219070
Arg of perigee:   286.1068 deg
Mean anomaly:     195.5813 deg
Mean motion:   14.79138683 rev/day
Decay rate:      2.514e-05 rev/day^2
Epoch rev:           00156
Checksum:              309

/EX


_______________________________________________
Via the Keps mailing list courtesy of AMSAT-NA
http://amsat.org/mailman/listinfo/keps

--- ViaMAIL!/WC v1.60d
 * Origin: Chowdanet (401-724-4410) telnet://chowdanet.com  (1:323/120)